Location: Izdebno
(52.6670°N, 16.2170°E)
Time: 08:21:52
(UTC+01:00)

Transit 2A Rocket - All Passes

Search period start: 26 February 2024 00:00
Search period end: 07 March 2024 00:00
Orbit: 591 x 904 km, 66.7° (Epoch: 25 February)

Date Brightness Start Highest point End Pass type
(mag) Time Alt. Az. Time Alt. Az. Time Alt. Az.
26 Feb - 01:31:34 10° SW 01:35:53 86° SE 01:40:24 10° NE visible
26 Feb - 03:15:18 10° W 03:18:56 24° NNW 03:22:44 10° NNE visible
26 Feb - 05:00:24 10° NW 05:03:01 15° N 05:05:45 10° NNE visible
26 Feb - 06:43:36 10° NNW 06:47:13 21° NNE 06:51:02 10° ENE daylight
26 Feb - 08:25:46 10° NW 08:30:34 60° NE 08:35:50 10° SE daylight
26 Feb - 10:08:32 10° NW 10:12:52 30° WSW 10:17:30 10° S daylight
27 Feb - 00:48:00 10° SSW 00:52:10 51° ESE 00:56:31 10° NE visible
27 Feb - 02:30:53 10° W 02:34:50 33° NW 02:39:00 10° NNE visible
27 Feb - 04:15:56 10° NW 04:18:42 16° N 04:21:36 10° NNE visible
27 Feb - 05:59:47 10° NNW 06:02:59 18° NNE 06:06:20 10° ENE visible
27 Feb - 07:42:03 10° NNW 07:46:39 42° NE 07:51:37 10° ESE daylight
27 Feb - 09:24:29 10° NW 09:29:14 47° WSW 09:34:24 10° SSE daylight
28 Feb - 00:04:49 10° S 00:08:35 30° ESE 00:12:29 10° NE night (unlit)
28 Feb - 01:46:39 10° WSW 01:50:51 48° NW 01:55:17 10° NNE visible
28 Feb - 03:31:20 10° WNW 03:34:25 18° NNW 03:37:39 10° NNE visible
28 Feb - 05:15:52 10° NNW 05:18:42 16° N 05:21:40 10° NE visible
28 Feb - 06:58:22 10° NNW 07:02:37 31° NNE 07:07:13 10° E daylight
28 Feb - 08:40:36 10° NW 08:45:31 74° SW 08:50:54 10° SSE daylight
28 Feb - 10:24:30 10° WNW 10:27:20 15° WSW 10:30:17 10° SW daylight
28 Feb - 23:22:10 10° SSE 23:25:06 18° ESE 23:28:06 10° ENE night (unlit)
29 Feb - 01:02:39 10° SW 01:06:58 75° NW 01:11:31 10° NE visible
29 Feb - 02:46:44 10° WNW 02:50:12 22° NNW 02:53:50 10° NNE visible
29 Feb - 04:31:42 10° NW 04:34:23 15° N 04:37:10 10° NE visible
29 Feb - 06:14:39 10° NNW 06:18:30 24° NNE 06:22:38 10° E daylight
29 Feb - 07:56:49 10° NW 08:01:43 74° NE 08:07:05 10° SE daylight
29 Feb - 09:39:50 10° WNW 09:43:51 24° WSW 09:48:08 10° SSW daylight
29 Feb - 22:41:20 10° ESE 22:41:43 10° ESE 22:42:07 10° E night (unlit)
01 Mar - 00:18:56 10° SSW 00:23:12 67° SE 00:27:41 10° NE visible
01 Mar - 02:02:15 10° W 02:06:04 28° NNW 02:10:05 10° NNE visible
01 Mar - 03:47:20 10° NW 03:50:04 15° N 03:52:53 10° NNE visible
01 Mar - 05:30:52 10° NNW 05:34:19 19° NNE 05:37:56 10° ENE visible
01 Mar - 07:13:05 10° NNW 07:17:50 50° NE 07:23:00 10° ESE daylight
01 Mar - 08:55:39 10° NW 09:00:16 38° WSW 09:05:16 10° S daylight
01 Mar - 23:35:32 10° S 23:39:32 39° ESE 23:43:44 10° NE night (unlit)
02 Mar - 01:17:55 10° WSW 01:22:01 39° NW 01:26:22 10° NNE visible
02 Mar - 03:02:47 10° NW 03:05:45 17° NNW 03:08:50 10° NNE visible
02 Mar - 04:47:00 10° NNW 04:50:03 17° NNE 04:53:14 10° NE visible
02 Mar - 06:29:22 10° NNW 06:33:51 36° NE 06:38:41 10° ESE daylight
02 Mar - 08:11:42 10° NW 08:16:36 60° WSW 08:21:56 10° SSE daylight
02 Mar - 09:56:31 10° W 09:58:15 12° WSW 10:00:01 10° SW daylight
02 Mar - 22:52:34 10° SSE 22:56:00 23° ESE 22:59:33 10° ENE night (unlit)
03 Mar - 00:33:47 10° SW 00:38:04 60° NW 00:42:36 10° NE visible
03 Mar - 02:18:11 10° WNW 02:21:29 20° NNW 02:24:57 10° NNE visible
03 Mar - 04:02:57 10° NNW 04:05:44 15° N 04:08:38 10° NE visible
03 Mar - 05:45:40 10° NNW 05:49:46 27° NNE 05:54:11 10° E visible
03 Mar - 07:27:52 10° NW 07:32:50 90° NE 07:38:16 10° SE daylight
03 Mar - 09:11:14 10° WNW 09:14:49 19° WSW 09:18:36 10° SSW daylight
03 Mar - 22:10:23 10° SE 22:12:35 14° ESE 22:14:49 10° ENE night (unlit)
03 Mar - 23:49:55 10° SW 23:54:14 86° SE 23:58:49 10° NE visible
04 Mar - 01:33:38 10° W 01:37:18 25° NNW 01:41:10 10° NNE visible
04 Mar - 03:18:41 10° NW 03:21:24 15° N 03:24:13 10° NNE visible
04 Mar - 05:01:55 10° NNW 05:05:36 21° NNE 05:09:32 10° ENE visible
04 Mar - 06:44:06 10° NW 06:48:59 61° NE 06:54:19 10° SE daylight
04 Mar - 08:26:52 10° NW 08:31:17 30° WSW 08:36:00 10° S daylight
04 Mar - 23:06:21 10° SSW 23:10:32 52° ESE 23:14:56 10° NE night (unlit)
05 Mar - 00:49:13 10° W 00:53:12 33° NW 00:57:26 10° NNE visible
05 Mar - 02:34:13 10° NW 02:37:04 16° N 02:40:04 10° NNE visible
05 Mar - 04:18:06 10° NNW 04:21:22 18° NNE 04:24:49 10° ENE visible
05 Mar - 06:00:23 10° NNW 06:05:03 42° NE 06:10:07 10° ESE daylight
05 Mar - 07:42:49 10° NW 07:47:38 48° WSW 07:52:53 10° SSE daylight
05 Mar - 22:23:09 10° S 22:26:55 30° ESE 22:30:53 10° NE night (unlit)
06 Mar - 00:04:58 10° WSW 00:09:12 48° NW 00:13:41 10° NNE visible
06 Mar - 01:49:37 10° WNW 01:52:47 18° NNW 01:56:06 10° NNE visible
06 Mar - 03:34:08 10° NNW 03:37:05 16° N 03:40:09 10° NE visible
06 Mar - 05:16:40 10° NNW 05:21:01 31° NNE 05:25:41 10° E visible
06 Mar - 06:58:56 10° NW 07:03:55 75° SW 07:09:23 10° SSE daylight
06 Mar - 08:42:47 10° WNW 08:45:44 15° WSW 08:48:49 10° SW daylight
06 Mar - 21:40:29 10° SSE 21:43:26 18° ESE 21:46:29 10° ENE night (unlit)
06 Mar - 23:20:59 10° SW 23:25:18 75° NW 23:29:55 10° NE visible
